{"data":{"norad_id":44314,"epoch":"2026-09-20T03:10:33.927168Z","epoch_age_seconds":90102,"freshness":"FRESH","line1":"1 44314U 19032E   26263.13233712  .00014759  00000+0  35212-3 0  9993","line2":"2 44314  44.9993 171.4972 0009866 173.2454 186.8569 15.41447450402714","mean_motion":15.4144745,"eccentricity":0.0009866,"inclination_deg":44.9993,"raan_deg":171.4972,"arg_perigee_deg":173.2454,"mean_anomaly_deg":186.8569,"bstar":0.00035212,"rev_number":40271,"period_min":93.418689038021,"perigee_km":435.10799394282,"apogee_km":448.56516581063,"semimajor_km":6819.9735798767,"source":"CELESTRAK","updated_at":"2026-09-20T09:00:14.458184Z"}}